Weather History for Lafayette, IN

Change the Weather History Date:

Thursday, October 30, 2014

  Actual Average Record
Temperature  
Mean Temperature 41 °F 50 °F  
Max Temperature 52 °F 60 °F 79 °F (1971)
Min Temperature 30 °F 40 °F 21 °F (1980)
Degree Days  
Heating Degree Days 24 15  
Month to date heating degree days 370 332  
Since 1 July heating degree days 520 417  
Cooling Degree Days 0 0  
Month to date cooling degree days 7 13  
Year to date cooling degree days 743 978  
Moisture  
Dew Point 34 °F    
Average Humidity 75    
Maximum Humidity 100    
Minimum Humidity 50    
Precipitation  
Precipitation T in 0.09 in 0.47 in (2004)
Month to date precipitation 5.54 2.80  
Year to date precipitation 35.66 31.01  
Sea Level Pressure  
Sea Level Pressure 30.14 in    
Wind  
Wind Speed 2 mph (West)    
Max Wind Speed 10 mph    
Max Gust Speed 14 mph    
Visibility 8 miles    
Events      
T = Trace of Precipitation, MM = Missing Value Source: NWS Daily Summary

Daily Weather History Graph

Daily Weather History Graph

Search for Another Location

Airport:

Trip Planner

Search our weather history database for the weather conditions in past years. The results will help you decide how hot, cold, wet, or windy it might be!

Date:

Astronomy

Oct. 30, 2014 Rise Set
Actual Time 8:15 AM EDT 6:46 PM EDT
Civil Twilight 7:47 AM EDT 7:15 PM EDT
Nautical Twilight 7:14 AM EDT 7:47 PM EDT
Astronomical Twilight 6:43 AM EDT 8:18 PM EDT
Moon 2:18 PM EDT (10/30) No Moon Set
Length of Visible Light 11h 28m
Length of Day
10h 31m
Waxing Crescent, 45% of the Moon is Illuminated
Oct 30
Waxing Crescent
Oct 30
First Quarter
Nov 6
Full
Nov 14
Last Quarter
Nov 22
New

Hourly Weather History & Observations

Time (EDT) Temp. Windchill Dew Point Humidity Pressure Visibility Wind Dir Wind Speed Gust Speed Precip Events Conditions
12:54 AM 41.0 °F - 37.9 °F 89% 30.15 in 10.0 mi Calm Calm - N/A   Overcast
1:54 AM 39.0 °F - 35.1 °F 86% 30.16 in 10.0 mi Calm Calm - N/A   Partly Cloudy
2:54 AM 36.0 °F - 35.1 °F 97% 30.16 in 10.0 mi Calm Calm - N/A   Clear
3:54 AM 34.0 °F - 33.1 °F 96% 30.17 in 9.0 mi Calm Calm - N/A   Clear
4:54 AM 30.9 °F 26.2 °F 30.9 °F 100% 30.17 in 10.0 mi West 4.6 mph - N/A   Clear
5:54 AM 32.0 °F - 30.9 °F 96% 30.18 in 5.0 mi Calm Calm - N/A   Clear
6:39 AM 30.9 °F - 30.9 °F 100% 30.17 in 2.0 mi Calm Calm - N/A   Partly Cloudy
6:43 AM 30.9 °F - 30.9 °F 100% 30.17 in 1.0 mi Calm Calm - N/A   Mist
6:54 AM 30.9 °F - 30.9 °F 100% 30.18 in 10.0 mi Calm Calm - N/A   Clear
7:54 AM 30.0 °F - 30.0 °F 100% 30.19 in 10.0 mi Calm Calm - N/A   Clear
8:54 AM 30.9 °F - 30.9 °F 100% 30.19 in 6.0 mi Calm Calm - N/A   Clear
9:01 AM 32.0 °F - 32.0 °F 100% 30.18 in 1.8 mi Calm Calm - N/A   Clear
9:08 AM 32.0 °F - 32.0 °F 100% 30.18 in 6.0 mi Calm Calm - N/A   Clear
9:54 AM 36.0 °F - 35.1 °F 97% 30.18 in 6.0 mi Calm Calm - N/A   Clear
10:54 AM 44.1 °F - 36.0 °F 73% 30.18 in 10.0 mi Calm Calm - N/A   Clear
11:54 AM 46.9 °F - 35.1 °F 63% 30.16 in 10.0 mi Variable 3.5 mph - N/A   Clear
12:54 PM 48.9 °F - 33.1 °F 54% 30.15 in 10.0 mi SSW 4.6 mph - N/A   Clear
1:54 PM 50.0 °F - 33.1 °F 52% 30.13 in 10.0 mi Variable 3.5 mph - N/A   Clear
2:54 PM 51.1 °F - 33.1 °F 50% 30.09 in 10.0 mi SW 6.9 mph - N/A   Clear
3:54 PM 52.0 °F - 34.0 °F 50% 30.08 in 10.0 mi Variable 3.5 mph - N/A   Scattered Clouds
4:54 PM 52.0 °F - 33.1 °F 49% 30.08 in 10.0 mi Calm Calm - N/A   Overcast
5:54 PM 50.0 °F - 36.0 °F 59% 30.08 in 10.0 mi Calm Calm - N/A   Overcast
6:54 PM 48.9 °F - 36.0 °F 61% 30.08 in 10.0 mi NW 4.6 mph - N/A   Overcast
7:54 PM 48.0 °F - 37.0 °F 66% 30.08 in 10.0 mi Calm Calm - N/A   Overcast
8:54 PM 46.9 °F - 37.9 °F 71% 30.07 in 10.0 mi Calm Calm - N/A   Overcast
9:54 PM 45.0 °F 43.5 °F 42.1 °F 90% 30.07 in 10.0 mi NW 3.5 mph - 0.00 in   Overcast
10:54 PM 45.0 °F - 39.9 °F 82% 30.07 in 10.0 mi Calm Calm - N/A   Overcast
11:54 PM 43.0 °F 41.3 °F 39.9 °F 89% 30.06 in 10.0 mi West 3.5 mph - N/A   Scattered Clouds